Wind_Speed
30 31 32 32 32 31 30 31 30 28 26 25 24 23 24 23 21 19 18 17 15 14 13 13 13 13 12 12 12 12 12 13 13 12 12 13 13 13 12 12 11 10 10
27 27 29 30 31 31 30 30 30 29 27 26 26 25 24 25 24 22 20 19 18 16 15 14 14 14 14 13 13 13 13 14 13 13 13 13 13 13 13 12 12 11 10
23 25 26 27 29 30 29 28 28 28 27 26 26 26 26 26 26 24 23 22 20 19 17 17 16 16 15 15 14 14 15 15 14 14 13 13 14 14 13 13 12 11 11
19 21 23 25 26 28 29 28 28 27 27 26 26 27 26 27 27 27 26 24 23 21 20 19 19 18 18 17 16 16 16 16 15 15 15 14 14 14 14 13 13 12 12
16 18 20 22 24 26 27 28 28 28 28 28 27 28 28 28 28 29 28 27 25 23 22 21 21 20 20 19 18 18 17 17 17 16 16 15 15 15 15 14 14 13 13
14 16 17 19 21 24 26 27 28 28 28 28 28 29 29 29 29 30 30 29 28 26 25 24 23 22 22 21 20 19 19 18 18 18 17 16 16 17 16 16 15 14 14
13 15 16 17 19 21 24 26 27 28 28 28 29 29 30 30 30 30 30 30 29 28 28 26 25 24 24 23 22 21 21 20 19 19 18 17 17 17 18 17 16 16 15
12 13 15 16 18 20 22 25 27 27 28 28 29 30 30 31 31 31 31 31 30 30 29 29 28 27 26 25 24 23 23 22 21 20 20 19 18 18 18 18 18 17 17
12 12 13 14 16 18 20 23 25 27 28 28 28 29 30 31 31 31 32 32 32 31 31 31 30 29 28 28 27 26 25 23 22 22 22 21 20 20 19 19 19 18 18
12 11 12 13 14 15 17 19 22 24 26 26 27 29 29 30 31 32 33 34 33 33 33 33 32 31 30 29 29 28 27 26 25 24 24 23 22 22 21 20 20 19 19
12 11 10 10 11 13 14 16 18 21 23 25 26 28 29 29 31 32 33 35 35 34 34 35 34 34 33 32 31 31 30 29 28 27 26 25 25 24 23 22 22 21 21
12 11 9 9 8 9 11 12 14 18 20 23 24 26 27 28 31 32 33 34 35 35 35 35 35 36 35 35 34 33 32 31 29 29 28 28 27 26 26 25 24 24 23
14 12 10 8 7 7 8 10 12 15 17 20 22 24 25 27 30 31 32 34 35 35 36 37 36 37 38 38 37 36 35 34 33 32 31 30 30 29 29 28 27 26 26
15 13 11 10 7 5 6 7 9 11 14 16 19 21 23 24 27 30 32 33 35 36 36 38 38 38 38 39 39 39 38 36 35 34 34 33 33 32 32 31 30 29 29
15 14 13 11 9 6 5 6 7 9 11 13 16 19 21 22 24 27 30 31 33 35 35 37 39 40 39 40 40 40 40 39 38 36 36 36 35 35 34 33 33 32 31
16 15 14 12 10 9 7 5 5 7 8 11 13 16 18 20 22 24 27 28 31 34 35 35 37 39 40 40 41 40 41 41 40 39 38 38 37 37 37 36 36 35 34
17 16 15 13 12 10 9 7 5 6 7 9 11 13 16 18 20 22 25 28 30 32 33 35 36 37 39 40 41 42 42 42 42 42 41 40 39 39 39 39 38 37 36
18 17 16 15 14 12 10 9 7 6 6 7 9 11 14 16 18 20 23 25 27 30 32 34 36 36 38 39 41 42 42 43 44 44 43 42 41 41 40 40 40 39 39
18 18 17 15 15 14 12 10 9 8 7 7 8 9 11 13 16 18 20 23 25 27 29 32 34 36 36 38 40 41 42 43 43 44 44 42 42 42 41 41 40 40 40
19 18 17 16 16 15 14 12 10 9 9 9 9 8 9 10 12 14 17 20 22 25 27 28 31 33 34 36 38 40 41 42 43 43 43 43 43 43 42 42 41 42 41
18 18 17 16 16 16 16 15 13 12 11 10 10 10 9 9 10 11 13 16 19 22 24 26 28 30 31 33 34 36 38 40 40 41 42 43 43 42 42 41 41 41 41
18 17 17 16 16 16 16 16 15 14 13 12 12 12 10 9 9 9 11 12 14 17 19 21 23 26 28 29 31 32 34 37 38 40 41 41 42 42 41 41 41 41 41
17 17 16 15 15 15 15 15 15 15 14 14 13 13 12 10 10 9 9 9 10 12 15 17 19 21 24 26 28 29 32 34 35 37 39 39 40 40 40 40 41 41 40
16 16 16 15 15 15 14 14 15 15 14 14 14 14 14 12 11 10 9 9 10 11 12 14 16 18 21 23 24 26 29 31 33 35 36 37 38 39 40 40 40 40 39
16 16 16 15 15 15 14 14 14 15 15 15 14 14 14 14 13 12 11 10 9 10 11 12 13 15 17 19 21 23 25 27 29 32 34 35 36 37 38 39 39 39 40
16 16 16 15 15 15 14 14 14 14 15 15 14 14 14 14 14 13 12 11 10 9 9 11 12 14 15 17 19 21 22 24 27 29 32 34 35 37 37 38 38 38 39
Wind_Direction
256 254 253 252 250 248 248 248 246 246 245 242 242 242 238 238 238 237 237 237 236 234 231 229 224 218 218 216 214 211 209 205 203 202 202 199 199 199 199 198 198 199 201
256 254 252 250 249 248 246 246 245 244 244 244 241 239 237 235 236 236 235 236 234 232 230 229 226 221 220 219 217 214 212 209 207 207 206 204 205 205 205 206 207 209 211
257 254 252 249 245 244 244 244 243 242 242 243 242 238 236 235 235 235 235 235 233 231 230 228 226 224 223 221 219 216 213 212 212 211 210 209 210 209 209 210 212 215 217
261 256 253 249 245 243 242 241 241 240 240 240 239 236 236 236 233 232 232 232 232 231 230 229 228 227 225 223 221 218 216 214 215 216 215 215 215 214 215 215 217 219 221
265 261 256 251 245 241 241 239 240 239 238 238 237 236 236 235 232 231 231 231 232 231 230 230 229 228 226 224 222 220 219 218 218 219 220 220 221 220 220 221 222 224 226
273 266 260 254 249 244 240 238 238 238 238 237 237 237 236 234 233 232 231 231 231 232 230 230 229 227 225 225 224 221 220 220 221 221 222 223 224 224 225 226 226 228 230
282 271 264 258 252 247 242 239 238 238 238 237 237 237 237 233 234 233 231 230 231 231 230 230 231 228 226 225 225 224 222 222 223 223 224 225 226 227 227 228 229 231 233
294 282 271 263 255 250 246 241 237 237 236 236 236 237 237 235 235 234 232 231 232 232 231 231 231 230 228 226 226 226 225 225 226 225 225 227 228 228 230 230 231 233 235
305 294 282 270 261 254 248 243 239 237 237 236 236 236 235 234 234 234 232 233 232 233 232 231 231 230 228 227 228 228 228 228 228 228 229 230 231 231 231 232 232 236 237
319 306 293 281 270 260 252 247 244 240 239 237 237 236 235 234 233 232 232 232 232 232 232 233 232 230 230 230 230 230 230 230 231 230 230 232 233 233 235 235 236 237 239
333 321 308 297 280 266 258 252 248 244 241 239 238 237 236 235 233 232 232 232 232 232 233 233 232 232 232 232 232 232 232 232 233 233 233 233 234 235 237 237 237 240 242
351 341 328 315 295 276 266 258 253 247 242 239 239 238 238 237 233 233 233 233 232 233 234 234 232 232 232 233 234 234 234 233 234 235 235 236 236 238 239 239 240 242 245
2 358 351 338 315 289 275 267 260 254 246 241 239 239 240 239 236 235 234 234 234 234 234 235 234 233 232 234 234 235 235 236 237 237 236 238 239 240 240 241 242 245 248
7 5 3 358 345 317 290 276 267 259 251 244 243 241 242 242 239 237 237 237 235 235 235 234 235 235 234 234 235 236 237 237 238 238 238 240 241 241 242 243 244 246 249
13 10 8 4 359 349 322 292 276 271 258 251 249 249 248 248 245 242 240 238 236 235 235 235 235 235 234 234 234 236 237 237 238 239 240 241 242 243 243 243 245 247 249
16 14 12 10 7 1 353 331 302 285 271 262 257 255 253 251 251 249 247 243 240 238 237 236 236 236 235 234 233 234 235 236 237 239 241 242 243 243 244 246 247 248 250
19 19 17 15 13 10 4 357 341 316 293 281 272 264 259 256 255 254 249 246 244 241 239 238 237 237 237 236 234 234 236 237 238 240 241 242 243 244 246 247 247 249 251
19 19 19 19 19 18 12 7 358 340 320 303 288 277 270 264 261 258 253 249 247 245 242 241 240 239 238 237 237 237 237 239 240 241 242 243 244 245 246 247 249 251 252
18 18 18 18 17 16 14 9 2 355 346 330 315 298 283 274 268 263 256 250 247 246 245 244 244 243 242 241 239 239 240 240 240 241 241 243 244 245 246 248 250 251 252
17 18 18 17 17 16 14 11 4 360 356 350 340 324 304 292 282 270 260 253 250 248 247 246 245 245 245 243 242 241 241 241 240 240 241 243 244 245 246 247 250 252 253
15 15 15 16 16 16 15 15 13 7 2 358 352 342 324 311 299 286 269 260 255 251 251 249 247 246 247 246 245 243 242 241 241 242 243 243 245 246 246 248 250 251 252
10 11 11 12 13 13 14 15 13 11 7 2 359 355 348 337 321 305 285 272 264 258 255 251 249 247 247 248 248 246 245 244 244 243 244 245 247 247 248 249 250 250 251
4 6 7 7 7 7 7 8 8 7 5 2 359 357 353 346 339 330 312 294 280 269 263 256 252 250 249 250 250 248 247 247 246 245 245 246 246 247 248 249 250 250 252
357 357 359 360 359 359 359 359 360 360 359 359 358 357 354 347 341 334 324 308 294 282 273 264 258 255 252 252 253 252 250 250 249 248 247 247 247 248 248 249 250 252 253
349 349 349 350 351 351 350 350 350 351 352 352 351 350 351 350 346 342 334 322 308 294 284 276 266 260 256 256 257 255 253 252 251 250 249 249 249 251 252 251 251 253 255
342 341 341 340 341 342 343 343 343 344 345 347 347 348 348 349 349 347 343 336 326 313 299 289 280 270 264 262 261 259 257 255 253 251 250 250 250 252 253 254 254 256 257
Height
5804 5806 5808 5811 5813 5816 5819 5822 5824 5828 5830 5833 5836 5839 5842 5845 5848 5851 5853 5855 5857 5859 5861 5863 5865 5867 5869 5870 5872 5874 5876 5878 5879 5881 5883 5885 5887 5889 5891 5892 5894 5896 5897
5797 5799 5801 5803 5806 5809 5812 5815 5818 5821 5824 5827 5831 5834 5837 5840 5843 5846 5849 5852 5854 5856 5858 5861 5862 5864 5867 5869 5870 5872 5874 5876 5878 5880 5882 5883 5885 5887 5889 5891 5893 5894 5896
5791 5792 5794 5797 5799 5802 5805 5809 5812 5815 5818 5821 5825 5828 5831 5835 5838 5841 5844 5847 5850 5853 5855 5857 5860 5862 5864 5866 5868 5870 5872 5874 5876 5878 5880 5882 5884 5886 5888 5890 5891 5893 5894
5785 5786 5788 5790 5792 5795 5799 5802 5805 5809 5812 5815 5819 5822 5825 5829 5832 5836 5839 5842 5845 5848 5851 5854 5856 5859 5861 5863 5865 5867 5870 5872 5874 5876 5878 5880 5882 5884 5886 5888 5890 5891 5893
5781 5781 5782 5784 5786 5789 5792 5795 5799 5802 5806 5809 5813 5816 5819 5823 5826 5830 5834 5837 5841 5844 5847 5850 5852 5855 5858 5860 5862 5865 5867 5869 5871 5874 5876 5878 5880 5882 5884 5886 5888 5889 5891
5777 5777 5778 5779 5780 5783 5786 5789 5792 5795 5799 5803 5806 5810 5813 5817 5820 5824 5828 5832 5835 5839 5842 5845 5848 5851 5854 5856 5859 5861 5864 5866 5868 5871 5873 5875 5877 5879 5881 5883 5885 5887 5888
5773 5773 5773 5774 5775 5777 5780 5782 5786 5789 5793 5796 5800 5804 5807 5811 5815 5818 5822 5825 5829 5833 5836 5840 5843 5846 5849 5852 5855 5858 5860 5862 5865 5867 5870 5872 5874 5876 5878 5880 5882 5884 5886
5770 5769 5769 5769 5770 5772 5774 5776 5779 5783 5786 5790 5793 5797 5801 5805 5809 5812 5816 5819 5823 5827 5831 5834 5838 5841 5845 5848 5851 5853 5856 5858 5861 5864 5866 5869 5871 5873 5875 5877 5879 5881 5882
5766 5765 5765 5765 5766 5767 5768 5771 5773 5777 5780 5783 5787 5791 5794 5798 5802 5805 5809 5813 5817 5821 5825 5828 5832 5835 5839 5842 5846 5849 5852 5854 5857 5859 5862 5865 5867 5869 5871 5873 5875 5877 5879
5763 5762 5761 5761 5761 5762 5763 5765 5768 5770 5774 5777 5780 5784 5788 5791 5794 5799 5803 5806 5810 5814 5818 5822 5826 5829 5833 5837 5840 5844 5847 5850 5852 5855 5857 5860 5862 5865 5867 5869 5871 5873 5875
5761 5759 5758 5757 5757 5757 5759 5760 5762 5765 5767 5771 5774 5777 5780 5784 5787 5791 5795 5799 5803 5807 5811 5815 5819 5823 5827 5831 5834 5838 5841 5844 5847 5850 5852 5855 5857 5860 5862 5864 5867 5869 5870
5760 5757 5756 5754 5754 5754 5755 5756 5758 5760 5762 5765 5768 5771 5773 5776 5780 5784 5787 5791 5796 5800 5804 5808 5812 5815 5819 5824 5828 5831 5834 5838 5841 5844 5847 5849 5852 5854 5857 5859 5861 5863 5865
5759 5757 5755 5753 5752 5752 5752 5753 5754 5755 5757 5759 5762 5765 5767 5770 5773 5776 5780 5784 5788 5792 5796 5800 5804 5808 5812 5816 5820 5824 5827 5831 5834 5838 5841 5843 5846 5848 5851 5853 5855 5858 5859
5760 5757 5754 5753 5751 5751 5751 5751 5751 5752 5753 5755 5757 5759 5761 5763 5766 5769 5773 5776 5780 5784 5788 5792 5796 5800 5804 5808 5812 5816 5820 5824 5827 5830 5833 5836 5839 5842 5844 5846 5849 5851 5853
5760 5757 5755 5753 5751 5750 5749 5749 5749 5749 5750 5751 5753 5754 5756 5758 5760 5763 5765 5769 5773 5776 5780 5784 5787 5791 5795 5800 5804 5807 5811 5815 5819 5822 5826 5829 5832 5835 5837 5839 5842 5844 5846
5761 5758 5755 5753 5751 5750 5749 5748 5748 5748 5748 5749 5749 5750 5752 5753 5754 5756 5758 5761 5765 5768 5772 5775 5779 5782 5786 5791 5795 5799 5802 5806 5810 5814 5817 5820 5823 5826 5829 5832 5834 5836 5838
5763 5760 5757 5754 5752 5750 5749 5748 5747 5746 5746 5746 5746 5747 5747 5748 5749 5750 5752 5754 5757 5760 5764 5767 5770 5774 5777 5781 5785 5789 5793 5797 5801 5804 5808 5811 5814 5817 5820 5823 5826 5828 5830
5765 5761 5758 5756 5753 5751 5749 5748 5747 5746 5745 5744 5744 5744 5743 5744 5744 5745 5746 5747 5750 5753 5756 5759 5762 5765 5768 5772 5776 5780 5784 5788 5791 5795 5798 5802 5805 5808 5811 5814 5816 5819 5821
5766 5763 5760 5757 5755 5752 5750 5748 5747 5745 5744 5743 5742 5741 5740 5740 5739 5739 5740 5741 5743 5746 5748 5751 5754 5756 5759 5763 5767 5771 5775 5778 5782 5785 5789 5792 5795 5799 5801 5804 5807 5809 5811
5768 5765 5762 5759 5756 5753 5751 5748 5747 5745 5743 5742 5740 5739 5737 5736 5735 5735 5735 5735 5737 5739 5741 5744 5746 5748 5750 5753 5757 5761 5765 5768 5772 5776 5779 5783 5785 5788 5791 5794 5797 5799 5801
5769 5766 5763 5760 5757 5754 5752 5749 5747 5745 5743 5741 5739 5737 5735 5734 5732 5731 5730 5730 5731 5733 5734 5736 5738 5740 5743 5745 5748 5752 5755 5759 5762 5766 5769 5773 5776 5779 5781 5784 5786 5789 5791
5770 5767 5764 5761 5758 5755 5753 5750 5748 5745 5743 5741 5738 5736 5734 5732 5730 5728 5727 5726 5727 5727 5728 5729 5731 5733 5736 5738 5740 5743 5747 5750 5754 5758 5760 5763 5765 5768 5771 5774 5776 5778 5780
5770 5767 5764 5761 5759 5756 5753 5751 5748 5746 5743 5741 5738 5735 5733 5731 5728 5727 5725 5724 5723 5723 5724 5725 5726 5727 5729 5731 5734 5736 5738 5741 5744 5747 5750 5753 5756 5758 5761 5763 5766 5767 5769
5770 5767 5764 5761 5758 5756 5753 5751 5748 5746 5743 5740 5738 5735 5732 5730 5727 5725 5723 5722 5721 5720 5720 5720 5721 5722 5723 5725 5727 5729 5730 5733 5735 5738 5740 5743 5746 5748 5751 5753 5755 5757 5759
5769 5766 5763 5760 5758 5755 5752 5750 5747 5745 5742 5740 5737 5734 5732 5729 5727 5724 5722 5720 5719 5718 5717 5717 5717 5718 5719 5720 5721 5722 5723 5725 5727 5729 5732 5735 5737 5739 5741 5743 5745 5747 5748
5767 5764 5762 5759 5756 5754 5751 5749 5746 5744 5741 5739 5736 5734 5731 5729 5726 5724 5722 5720 5718 5716 5715 5715 5714 5714 5714 5715 5715 5716 5717 5719 5720 5722 5724 5726 5728 5730 5732 5734 5736 5737 5738